This demonstration page uses our WeatherBlox Daily Observations layout. Learn more.

Left ArrowRight Arrow

34.02893, -84.19858

Hourly Observations for August 17, 2022

Temp ( °F °C ) Dew Point ( °F °C ) Humidity (%) Winds ( mph kmh ) Pressure ( in mb ) Visibility ( mi km ) Precip ( " mm )
12:16 am 00:16 Cloudy 74 23.3 68 20 82 82 Calm 29.93 1014 10 16 0.00 0.00
12:53 am 00:53 Mostly Cloudy 73 22.8 68 20 84 84 Calm 29.91 1013 10 16 0.00 0.00
3:15 am 03:15 Cloudy 72 22.2 67 19.4 84 84 VRB 5 7 29.92 1013 10 16 0.00 0.00
3:26 am 03:26 Cloudy 72 22.2 67 19.4 84 84 Calm 29.92 1013 10 16 0.00 0.00
3:53 am 03:53 Cloudy 72 22.2 67 19.4 84 84 VRB 3 6 29.89 1012 10 16 0.00 0.00
4:01 am 04:01 Cloudy 72 22.2 67 19.4 84 84 Calm 29.92 1013 10 16 0.00 0.00
4:53 am 04:53 Cloudy 71 21.7 66 18.9 84 84 VRB 5 7 29.91 1013 10 16 0.00 0.00
5:41 am 05:41 Cloudy 71 21.7 66 18.9 84 84 Calm 29.93 1013 10 16 0.00 0.00
5:53 am 05:53 Cloudy 71 21.7 66 18.9 84 84 VRB 3 6 29.91 1013 10 16 0.00 0.00
6:23 am 06:23 Cloudy 71 21.7 66 18.9 84 84 VRB 5 7 29.94 1014 10 16 0.00 0.00
6:53 am 06:53 Cloudy 71 21.7 66 18.9 84 84 Calm 29.93 1014 10 16 0.00 0.00
7:46 am 07:46 Cloudy 71 21.7 66 18.9 84 84 VRB 5 7 29.97 1015 10 16 0.00 0.00
7:53 am 07:53 Cloudy 71 21.7 66 18.9 84 84 Calm 29.96 1015 10 16 0.00 0.00
8:53 am 08:53 Cloudy 70 21.1 66 18.9 87 87 VRB 3 6 29.98 1015 10 16 0.00 0.00
9:55 am 09:55 Cloudy with Light Rain 69 20.6 67 19.4 93 93 ENE 5 7 30.00 1016 3 4 0.01 0.13
10:00 am 10:00 Cloudy with Rain 69 20.6 67 19.4 93 93 ENE 3 6 30.00 1016 2 3 0.02 0.51
10:34 am 10:34 Cloudy with Light Rain 69 20.6 67 19.4 93 93 Calm 30.01 1016 2 3 0.10 2.54
10:41 am 10:41 Cloudy with Light Rain 69 20.6 68 20 96 96 Calm 30.01 1016 2 2 0.12 3.05
10:53 am 10:53 Cloudy with Light Rain 69 20.6 68 20 96 96 Calm 30.00 1016 2 3 0.13 3.30
10:55 am 10:55 Cloudy with Light Rain 69 20.6 68 20 96 96 VRB 3 6 30.01 1016 2 3 0.01 0.13
11:07 am 11:07 Cloudy with Light Rain 69 20.6 68 20 96 96 Calm 30.01 1016 2 3 0.02 0.51
11:14 am 11:14 Cloudy with Rain 69 20.6 68 20 96 96 Calm 30.01 1016 2 3 0.04 1.02
11:53 am 11:53 Cloudy with Mist and Fog 72 22.2 69 20.6 91 91 VRB 3 6 30.00 1016 2 3 0.05 1.27
12:00 pm 12:00 Cloudy 71 21.7 68 20 90 90 VRB 3 6 30.01 1016 10 16 0.00 0.00
12:53 pm 12:53 Cloudy 75 23.9 69 20.6 82 82 VRB 3 6 29.98 1015 10 16 0.00 0.00
1:40 pm 13:40 Mostly Cloudy 77 25 68 20 74 74 VRB 3 6 29.99 1015 10 16 0.00 0.00
1:50 pm 13:50 Partly Cloudy 79 26 68 20 70 70 W 3 6 29.97 1015 10 16 0.00 0.00
1:53 pm 13:53 Mostly Cloudy 78 25.6 67 19.4 69 69 W 5 7 29.97 1015 10 16 0.00 0.00
2:53 pm 14:53 Sunny 78 25.6 67 19.4 69 69 Calm 29.96 1015 10 16 0.00 0.00
3:26 pm 15:26 Mostly Cloudy 79 26.1 68 20 69 69 VRB 5 7 29.95 1014 10 16 0.00 0.00
3:34 pm 15:34 Mostly Cloudy 78 25.6 68 20 71 71 Calm 29.95 1014 10 16 0.00 0.00
3:44 pm 15:44 Cloudy 79 26.1 68 20 69 69 Calm 29.95 1014 10 16 0.00 0.00
3:53 pm 15:53 Cloudy 79 26.1 68 20 69 69 Calm 29.95 1014 10 16 0.00 0.00
4:53 pm 16:53 Mostly Sunny 78 25.6 68 20 71 71 VRB 3 6 29.92 1013 10 16 0.00 0.00
5:53 pm 17:53 Sunny 78 25.6 67 19.4 69 69 SSE 3 6 29.92 1013 10 16 0.00 0.00
6:53 pm 18:53 Mostly Sunny 77 25 67 19.4 71 71 Calm 29.91 1013 10 16 0.00 0.00
7:53 pm 19:53 Cloudy 75 23.9 69 20.6 82 82 Calm 29.92 1013 10 16 0.00 0.00
8:53 pm 20:53 Cloudy with Light Rain 73 22.8 70 21.1 90 90 SW 9 15 29.94 1014 5 8 0.01 0.25
9:11 pm 21:11 Cloudy with Heavy Rain 71 21.7 69 20.6 93 93 SW 10 17 29.97 1015 2 3 0.10 2.54
9:26 pm 21:26 Cloudy with Light Rain 70 21.1 69 20.6 97 97 SSW 7 11 29.97 1015 6 10 0.13 3.30
9:53 pm 21:53 Cloudy with Light Rain 70 21.1 68 20 93 93 Calm 29.97 1015 6 10 0.19 4.83
10:53 pm 22:53 Cloudy with Light Rain 71 21.7 69 20.6 93 93 Calm 29.97 1015 7 11 0.01 0.13
11:53 pm 23:53 Cloudy 71 21.7 70 21.1 96 96 Calm 29.96 1015 7 11 0.01 0.25

Powered by AerisWeather